| time (UTC) | temp F | wind direction | speed MPH | gust MPH | rain 1hr in | rain 24hr in | rain mn in | humidity % | barometer mb |
| 20260510065423 | 63 | 30 | 0.0 | 0.0 | 0.00 | 0.00 | 0.00 | 91 | 1008.4 |
| 20260510064919 | 63 | 30 | 0.0 | 0.0 | 0.00 | 0.00 | 0.00 | 91 | 1008.3 |
| 20260510064417 | 63 | 30 | 0.0 | 0.0 | 0.00 | 0.00 | 0.00 | 91 | 1008.4 |
| 20260510063913 | 63 | 29 | 0.0 | 0.0 | 0.00 | 0.00 | 0.00 | 91 | 1008.5 |
| 20260510063409 | 63 | 29 | 0.0 | 0.0 | 0.00 | 0.00 | 0.00 | 91 | 1008.2 |
| 20260510062907 | 63 | 29 | 0.0 | 0.0 | 0.00 | 0.00 | 0.00 | 91 | 1008.4 |
| 20260510062401 | 63 | 30 | 0.0 | 0.0 | 0.00 | 0.00 | 0.00 | 91 | 1008.4 |
| 20260510061857 | 63 | 30 | 0.0 | 0.0 | 0.00 | 0.00 | 0.00 | 91 | 1008.1 |
| 20260510061354 | 63 | 30 | 0.0 | 0.0 | 0.00 | 0.00 | 0.00 | 91 | 1008.5 |
| 20260510060850 | 63 | 29 | 0.0 | 0.0 | 0.00 | 0.00 | 0.00 | 90 | 1008.4 |
| 20260510060347 | 64 | 29 | 0.0 | 0.0 | 0.00 | 0.00 | 0.00 | 90 | 1008.4 |
| 20260510055844 | 64 | 29 | 0.0 | 0.0 | 0.00 | 0.00 | 0.00 | 90 | 1008.6 |
| 20260510055343 | 64 | 29 | 0.0 | 0.0 | 0.00 | 0.00 | 0.00 | 90 | 1008.3 |
| 20260510054842 | 64 | 29 | 0.0 | 0.0 | 0.00 | 0.00 | 0.00 | 90 | 1008.3 |
| 20260510054338 | 64 | 29 | 0.0 | 0.0 | 0.00 | 0.00 | 0.00 | 90 | 1008.5 |
| 20260510053833 | 64 | 29 | 0.0 | 0.0 | 0.00 | 0.00 | 0.00 | 90 | 1008.6 |
| 20260510053329 | 64 | 30 | 0.0 | 0.0 | 0.00 | 0.00 | 0.00 | 90 | 1008.7 |
| 20260510052826 | 64 | 29 | 0.0 | 0.0 | 0.00 | 0.00 | 0.00 | 90 | 1008.7 |
| 20260510052321 | 64 | 29 | 0.0 | 0.0 | 0.00 | 0.00 | 0.00 | 90 | 1008.7 |
| 20260510051818 | 64 | 30 | 0.0 | 0.0 | 0.00 | 0.00 | 0.00 | 90 | 1008.5 |
| 20260510051315 | 64 | 29 | 0.0 | 0.0 | 0.00 | 0.00 | 0.00 | 90 | 1008.9 |
| 20260510050812 | 64 | 29 | 0.0 | 1.0 | 0.00 | 0.00 | 0.00 | 90 | 1008.6 |
| 20260510050308 | 64 | 29 | 0.0 | 0.0 | 0.00 | 0.00 | 0.00 | 90 | 1008.7 |
| 20260510045805 | 64 | 30 | 0.0 | 0.0 | 0.00 | 0.00 | 0.00 | 89 | 1008.7 |
| 20260510045305 | 64 | 30 | 0.0 | 0.0 | 0.00 | 0.00 | 0.00 | 89 | 1008.8 |
| 20260510044759 | 64 | 29 | 0.0 | 0.0 | 0.00 | 0.00 | 0.00 | 89 | 1008.6 |
| 20260510044256 | 64 | 29 | 0.0 | 0.0 | 0.00 | 0.00 | 0.00 | 89 | 1008.7 |
| 20260510043752 | 64 | 29 | 0.0 | 0.0 | 0.00 | 0.00 | 0.00 | 89 | 1008.7 |
| 20260510043248 | 64 | 29 | 0.0 | 0.0 | 0.00 | 0.00 | 0.00 | 89 | 1008.7 |
| 20260510042746 | 64 | 30 | 0.0 | 0.0 | 0.00 | 0.00 | 0.00 | 89 | 1008.8 |
| 20260510042241 | 64 | 30 | 0.0 | 0.0 | 0.00 | 0.00 | 0.00 | 89 | 1008.7 |
| 20260510041738 | 64 | 30 | 0.0 | 0.0 | 0.00 | 0.00 | 0.00 | 89 | 1008.6 |
| 20260510041236 | 64 | 30 | 0.0 | 0.0 | 0.00 | 0.00 | 0.00 | 89 | 1008.7 |
| 20260510040733 | 64 | 30 | 0.0 | 0.0 | 0.00 | 0.00 | 0.00 | 89 | 1008.7 |
| 20260510040230 | 64 | 30 | 0.0 | 0.0 | 0.00 | 0.00 | 0.00 | 89 | 1008.7 |
| 20260510035725 | 64 | 30 | 0.0 | 0.0 | 0.00 | 0.00 | 0.00 | 89 | 1008.6 |
| 20260510035221 | 65 | 30 | 0.0 | 0.0 | 0.00 | 0.00 | 0.00 | 89 | 1008.6 |
| 20260510034717 | 65 | 30 | 0.0 | 0.0 | 0.00 | 0.00 | 0.00 | 89 | 1008.6 |
| 20260510034215 | 65 | 30 | 0.0 | 0.0 | 0.00 | 0.00 | 0.00 | 88 | 1008.6 |
| 20260510033711 | 65 | 30 | 0.0 | 0.0 | 0.00 | 0.00 | 0.00 | 88 | 1008.6 |
| 20260510033209 | 65 | 30 | 0.0 | 0.0 | 0.00 | 0.00 | 0.00 | 88 | 1008.6 |
| 20260510032705 | 64 | 30 | 0.0 | 0.0 | 0.00 | 0.00 | 0.00 | 88 | 1008.6 |
| 20260510032201 | 65 | 30 | 0.0 | 0.0 | 0.00 | 0.00 | 0.00 | 88 | 1008.5 |
| 20260510031655 | 65 | 30 | 0.0 | 0.0 | 0.00 | 0.00 | 0.00 | 88 | 1008.4 |
| 20260510031152 | 65 | 27 | 0.0 | 0.0 | 0.00 | 0.00 | 0.00 | 87 | 1008.8 |
| 20260510030646 | 65 | 27 | 0.0 | 0.0 | 0.00 | 0.00 | 0.00 | 87 | 1008.7 |
| 20260510030144 | 65 | 27 | 0.0 | 0.0 | 0.00 | 0.00 | 0.00 | 87 | 1008.6 |
| 20260510025641 | 65 | 27 | 0.0 | 0.0 | 0.00 | 0.00 | 0.00 | 87 | 1008.8 |
| 20260510025139 | 66 | 27 | 0.0 | 0.0 | 0.00 | 0.00 | 0.00 | 87 | 1008.5 |
| 20260510024635 | 66 | 27 | 0.0 | 0.0 | 0.00 | 0.00 | 0.00 | 87 | 1008.7 |
| 20260510024132 | 66 | 27 | 0.0 | 0.0 | 0.00 | 0.00 | 0.00 | 86 | 1008.5 |
| 20260510023628 | 66 | 27 | 0.0 | 0.0 | 0.00 | 0.00 | 0.00 | 86 | 1008.6 |
| 20260510023125 | 66 | 27 | 0.0 | 0.0 | 0.00 | 0.00 | 0.00 | 86 | 1008.4 |
| 20260510022625 | 66 | 27 | 0.0 | 0.0 | 0.00 | 0.00 | 0.00 | 86 | 1008.5 |
| 20260510022120 | 66 | 27 | 0.0 | 0.0 | 0.00 | 0.00 | 0.00 | 85 | 1008.5 |
| 20260510021616 | 67 | 16 | 0.0 | 1.0 | 0.00 | 0.00 | 0.00 | 86 | 1008.5 |
| 20260510021114 | 67 | 15 | 0.0 | 0.0 | 0.00 | 0.00 | 0.00 | 85 | 1008.5 |
| 20260510020614 | 67 | 15 | 0.0 | 0.0 | 0.00 | 0.00 | 0.00 | 85 | 1008.4 |
| 20260510020109 | 67 | 15 | 0.0 | 1.0 | 0.00 | 0.00 | 0.00 | 85 | 1008.4 |
| 20260510015606 | 68 | 14 | 0.0 | 1.0 | 0.00 | 0.00 | 0.00 | 85 | 1008.3 |
| 20260510015102 | 68 | 10 | 1.0 | 2.0 | 0.00 | 0.00 | 0.00 | 84 | 1008.4 |
| 20260510014558 | 68 | 8 | 2.0 | 2.0 | 0.00 | 0.00 | 0.00 | 83 | 1008.1 |
| 20260510014056 | 68 | 13 | 1.0 | 2.0 | 0.00 | 0.00 | 0.00 | 83 | 1008.3 |
| 20260510013550 | 68 | 7 | 1.0 | 2.0 | 0.00 | 0.00 | 0.00 | 83 | 1007.9 |
| 20260510013046 | 68 | 4 | 2.0 | 2.0 | 0.00 | 0.00 | 0.00 | 83 | 1007.9 |
| 20260510012539 | 68 | 355 | 2.0 | 2.0 | 0.00 | 0.00 | 0.00 | 83 | 1007.9 |
| 20260510012037 | 68 | 345 | 2.0 | 2.0 | 0.00 | 0.00 | 0.00 | 82 | 1007.8 |
| 20260510011536 | 68 | 329 | 2.0 | 3.0 | 0.00 | 0.00 | 0.00 | 82 | 1007.9 |
| 20260510011032 | 68 | 346 | 2.0 | 2.0 | 0.00 | 0.00 | 0.00 | 82 | 1007.8 |
| 20260510010529 | 68 | 351 | 2.0 | 2.0 | 0.00 | 0.00 | 0.00 | 82 | 1007.7 |
| 20260510010026 | 68 | 338 | 2.0 | 2.0 | 0.00 | 0.00 | 0.00 | 82 | 1008.0 |
| 20260510005521 | 69 | 349 | 2.0 | 2.0 | 0.00 | 0.00 | 0.00 | 81 | 1007.5 |
| 20260510005020 | 69 | 12 | 1.0 | 2.0 | 0.00 | 0.00 | 0.00 | 81 | 1007.6 |
| 20260510004517 | 69 | 2 | 2.0 | 2.0 | 0.00 | 0.00 | 0.00 | 81 | 1007.4 |
| 20260510004015 | 69 | 359 | 2.0 | 2.0 | 0.00 | 0.00 | 0.00 | 80 | 1007.3 |
| 20260510003511 | 69 | 358 | 1.0 | 2.0 | 0.00 | 0.00 | 0.00 | 79 | 1007.4 |
| 20260510003006 | 69 | 341 | 2.0 | 2.0 | 0.00 | 0.00 | 0.00 | 79 | 1007.0 |
| 20260510002502 | 69 | 330 | 2.0 | 3.0 | 0.00 | 0.00 | 0.00 | 78 | 1007.2 |
| 20260510002000 | 70 | 327 | 2.0 | 3.0 | 0.00 | 0.00 | 0.00 | 79 | 1007.1 |
| 20260510001457 | 70 | 326 | 3.0 | 3.0 | 0.00 | 0.00 | 0.00 | 78 | 1006.9 |
| 20260510000955 | 70 | 332 | 3.0 | 3.0 | 0.00 | 0.00 | 0.00 | 78 | 1006.9 |
| 20260510000450 | 70 | 343 | 2.0 | 3.0 | 0.00 | 0.00 | 0.00 | 78 | 1006.8 |
| 20260509235947 | 70 | 325 | 2.0 | 3.0 | 0.00 | 0.00 | 0.00 | 77 | 1006.6 |
| 20260509235444 | 70 | 329 | 3.0 | 3.0 | 0.00 | 0.00 | 0.00 | 77 | 1006.6 |
| 20260509234940 | 71 | 313 | 3.0 | 3.0 | 0.00 | 0.00 | 0.00 | 77 | 1006.7 |
| 20260509234437 | 71 | 316 | 3.0 | 3.0 | 0.00 | 0.00 | 0.00 | 76 | 1006.5 |
| 20260509233935 | 71 | 306 | 3.0 | 5.0 | 0.00 | 0.00 | 0.00 | 76 | 1006.6 |
| 20260509233432 | 71 | 333 | 2.0 | 3.0 | 0.00 | 0.00 | 0.00 | 76 | 1006.3 |
| 20260509232928 | 71 | 328 | 3.0 | 3.0 | 0.00 | 0.00 | 0.00 | 75 | 1006.6 |
| 20260509232426 | 71 | 345 | 2.0 | 3.0 | 0.00 | 0.00 | 0.00 | 75 | 1006.4 |
| 20260509231921 | 71 | 314 | 3.0 | 5.0 | 0.00 | 0.00 | 0.00 | 75 | 1006.4 |
| 20260509231418 | 71 | 309 | 3.0 | 3.0 | 0.00 | 0.00 | 0.00 | 75 | 1006.3 |
| 20260509230916 | 71 | 288 | 6.0 | 6.0 | 0.00 | 0.00 | 0.00 | 74 | 1006.6 |
| 20260509230413 | 72 | 312 | 3.0 | 3.0 | 0.00 | 0.00 | 0.00 | 74 | 1006.2 |
| 20260509225909 | 72 | 321 | 3.0 | 5.0 | 0.00 | 0.00 | 0.00 | 73 | 1006.4 |
| 20260509225406 | 72 | 292 | 4.0 | 5.0 | 0.00 | 0.00 | 0.00 | 73 | 1006.3 |
| 20260509224901 | 72 | 291 | 5.0 | 6.0 | 0.00 | 0.00 | 0.00 | 73 | 1006.5 |
| 20260509224357 | 72 | 307 | 4.0 | 5.0 | 0.00 | 0.00 | 0.00 | 73 | 1006.4 |
| 20260509223855 | 72 | 309 | 4.0 | 6.0 | 0.00 | 0.00 | 0.00 | 73 | 1006.3 |
| 20260509223351 | 72 | 296 | 4.0 | 7.0 | 0.00 | 0.00 | 0.00 | 73 | 1006.1 |
| 20260509222848 | 72 | 304 | 4.0 | 6.0 | 0.00 | 0.00 | 0.00 | 74 | 1006.3 |
| 20260509222343 | 72 | 308 | 5.0 | 7.0 | 0.00 | 0.00 | 0.00 | 73 | 1005.9 |
| 20260509221838 | 72 | 295 | 5.0 | 6.0 | 0.00 | 0.00 | 0.00 | 72 | 1006.3 |
| 20260509221336 | 72 | 243 | 4.0 | 5.0 | 0.00 | 0.00 | 0.00 | 72 | 1006.4 |
| 20260509220831 | 72 | 296 | 5.0 | 7.0 | 0.00 | 0.00 | 0.00 | 73 | 1006.2 |
| 20260509220327 | 72 | 295 | 4.0 | 6.0 | 0.00 | 0.00 | 0.00 | 73 | 1006.0 |
| 20260509215823 | 72 | 256 | 4.0 | 8.0 | 0.00 | 0.00 | 0.00 | 74 | 1006.3 |
| 20260509215320 | 72 | 316 | 3.0 | 7.0 | 0.00 | 0.00 | 0.00 | 74 | 1006.3 |
| 20260509214817 | 72 | 308 | 4.0 | 7.0 | 0.00 | 0.00 | 0.00 | 75 | 1006.3 |
| 20260509214314 | 72 | 283 | 5.0 | 7.0 | 0.00 | 0.00 | 0.00 | 73 | 1006.2 |
| 20260509213811 | 72 | 319 | 3.0 | 6.0 | 0.00 | 0.00 | 0.00 | 74 | 1006.0 |
| 20260509213306 | 72 | 302 | 5.0 | 8.0 | 0.00 | 0.00 | 0.00 | 74 | 1006.3 |
| 20260509212804 | 72 | 251 | 5.0 | 6.0 | 0.00 | 0.00 | 0.00 | 73 | 1006.1 |
| 20260509212305 | 72 | 278 | 5.0 | 10.0 | 0.00 | 0.00 | 0.00 | 74 | 1006.2 |
| 20260509211756 | 72 | 299 | 3.0 | 6.0 | 0.00 | 0.00 | 0.00 | 74 | 1006.1 |
| 20260509211253 | 72 | 287 | 6.0 | 7.0 | 0.00 | 0.00 | 0.00 | 73 | 1006.0 |
| 20260509210750 | 72 | 294 | 3.0 | 7.0 | 0.00 | 0.00 | 0.00 | 73 | 1006.4 |
| 20260509210248 | 72 | 268 | 4.0 | 9.0 | 0.00 | 0.00 | 0.00 | 73 | 1006.3 |
| 20260509205747 | 72 | 283 | 4.0 | 6.0 | 0.00 | 0.00 | 0.00 | 73 | 1006.3 |
| 20260509205242 | 72 | 255 | 3.0 | 5.0 | 0.00 | 0.00 | 0.00 | 73 | 1006.3 |
| 20260509204738 | 72 | 290 | 5.0 | 7.0 | 0.00 | 0.00 | 0.00 | 73 | 1006.4 |
| 20260509204235 | 72 | 287 | 3.0 | 5.0 | 0.00 | 0.00 | 0.00 | 73 | 1006.2 |
| 20260509203731 | 72 | 330 | 3.0 | 6.0 | 0.00 | 0.00 | 0.00 | 72 | 1006.4 |
| 20260509203229 | 72 | 321 | 3.0 | 7.0 | 0.00 | 0.00 | 0.00 | 73 | 1006.5 |
| 20260509202724 | 72 | 272 | 6.0 | 7.0 | 0.00 | 0.00 | 0.00 | 74 | 1006.5 |
| 20260509202220 | 72 | 277 | 11.0 | 14.0 | 0.00 | 0.00 | 0.00 | 73 | 1006.6 |
| 20260509201715 | 72 | 295 | 5.0 | 7.0 | 0.00 | 0.00 | 0.00 | 73 | 1006.7 |
| 20260509201212 | 72 | 203 | 3.0 | 7.0 | 0.00 | 0.00 | 0.00 | 73 | 1006.8 |
| 20260509200708 | 72 | 285 | 5.0 | 7.0 | 0.00 | 0.00 | 0.00 | 72 | 1006.7 |
| 20260509200203 | 71 | 192 | 4.0 | 7.0 | 0.00 | 0.00 | 0.00 | 73 | 1006.9 |
| 20260509195700 | 71 | 246 | 5.0 | 8.0 | 0.00 | 0.00 | 0.00 | 73 | 1006.7 |
| 20260509195155 | 71 | 270 | 4.0 | 7.0 | 0.00 | 0.00 | 0.00 | 74 | 1006.8 |
| 20260509194649 | 71 | 289 | 5.0 | 8.0 | 0.00 | 0.00 | 0.00 | 73 | 1006.9 |
| 20260509194146 | 71 | 236 | 5.0 | 7.0 | 0.00 | 0.00 | 0.00 | 73 | 1007.0 |
| 20260509193642 | 71 | 335 | 4.0 | 9.0 | 0.00 | 0.00 | 0.00 | 74 | 1006.9 |
| 20260509193138 | 71 | 285 | 10.0 | 10.0 | 0.00 | 0.00 | 0.00 | 73 | 1006.9 |
| 20260509192635 | 71 | 288 | 7.0 | 7.0 | 0.00 | 0.00 | 0.00 | 73 | 1007.2 |
| 20260509192130 | 71 | 270 | 5.0 | 7.0 | 0.00 | 0.00 | 0.00 | 74 | 1007.1 |
| 20260509191629 | 71 | 294 | 5.0 | 7.0 | 0.00 | 0.00 | 0.00 | 73 | 1007.1 |
| 20260509191127 | 71 | 242 | 6.0 | 7.0 | 0.00 | 0.00 | 0.00 | 74 | 1007.2 |
| 20260509190623 | 71 | 279 | 5.0 | 6.0 | 0.00 | 0.00 | 0.00 | 74 | 1007.1 |
| 20260509190120 | 71 | 301 | 3.0 | 5.0 | 0.00 | 0.00 | 0.00 | 73 | 1007.1 |
| 20260509185618 | 71 | 275 | 4.0 | 5.0 | 0.00 | 0.00 | 0.00 | 73 | 1007.1 |
| 20260509185114 | 71 | 298 | 4.0 | 9.0 | 0.00 | 0.00 | 0.00 | 73 | 1007.3 |
| 20260509184612 | 71 | 310 | 4.0 | 5.0 | 0.00 | 0.00 | 0.00 | 74 | 1007.2 |
| 20260509184109 | 71 | 320 | 4.0 | 6.0 | 0.00 | 0.00 | 0.00 | 73 | 1007.5 |
| 20260509183604 | 71 | 298 | 6.0 | 7.0 | 0.00 | 0.00 | 0.00 | 73 | 1007.3 |
| 20260509183100 | 71 | 275 | 5.0 | 9.0 | 0.00 | 0.00 | 0.00 | 73 | 1007.4 |
| 20260509182556 | 71 | 282 | 3.0 | 5.0 | 0.00 | 0.00 | 0.00 | 73 | 1007.2 |
| 20260509182053 | 71 | 168 | 3.0 | 3.0 | 0.00 | 0.00 | 0.00 | 73 | 1007.4 |
| 20260509181552 | 70 | 296 | 3.0 | 6.0 | 0.00 | 0.00 | 0.00 | 73 | 1007.5 |
| 20260509181048 | 71 | 294 | 5.0 | 9.0 | 0.00 | 0.00 | 0.00 | 73 | 1007.4 |
| 20260509180544 | 71 | 281 | 4.0 | 5.0 | 0.00 | 0.00 | 0.00 | 73 | 1007.5 |
| 20260509180042 | 71 | 278 | 5.0 | 6.0 | 0.00 | 0.00 | 0.00 | 73 | 1007.4 |
| 20260509175537 | 71 | 271 | 5.0 | 6.0 | 0.00 | 0.00 | 0.00 | 73 | 1007.5 |
| 20260509175035 | 71 | 335 | 3.0 | 5.0 | 0.00 | 0.00 | 0.00 | 72 | 1007.3 |
| 20260509174531 | 71 | 310 | 4.0 | 7.0 | 0.00 | 0.00 | 0.00 | 73 | 1007.5 |
| 20260509174026 | 71 | 319 | 3.0 | 3.0 | 0.00 | 0.00 | 0.00 | 73 | 1007.4 |
| 20260509173520 | 70 | 316 | 3.0 | 7.0 | 0.00 | 0.00 | 0.00 | 74 | 1007.5 |
| 20260509173017 | 70 | 322 | 4.0 | 7.0 | 0.00 | 0.00 | 0.00 | 72 | 1007.4 |
| 20260509172514 | 70 | 277 | 7.0 | 8.0 | 0.00 | 0.00 | 0.00 | 73 | 1007.7 |
| 20260509172010 | 70 | 300 | 5.0 | 6.0 | 0.00 | 0.00 | 0.00 | 72 | 1007.6 |
| 20260509171506 | 70 | 319 | 3.0 | 5.0 | 0.00 | 0.00 | 0.00 | 72 | 1007.4 |
| 20260509171003 | 70 | 311 | 3.0 | 5.0 | 0.00 | 0.00 | 0.00 | 73 | 1007.3 |
| 20260509170458 | 70 | 298 | 5.0 | 7.0 | 0.00 | 0.00 | 0.00 | 73 | 1007.5 |
| 20260509165954 | 70 | 276 | 5.0 | 7.0 | 0.00 | 0.00 | 0.00 | 73 | 1007.7 |
| 20260509165453 | 70 | 353 | 4.0 | 7.0 | 0.00 | 0.00 | 0.00 | 72 | 1007.7 |
| 20260509164949 | 70 | 293 | 8.0 | 8.0 | 0.00 | 0.00 | 0.00 | 73 | 1007.4 |
| 20260509164445 | 70 | 311 | 3.0 | 5.0 | 0.00 | 0.00 | 0.00 | 73 | 1007.6 |
| 20260509163941 | 70 | 271 | 5.0 | 6.0 | 0.00 | 0.00 | 0.00 | 73 | 1007.7 |
| 20260509163438 | 70 | 289 | 4.0 | 5.0 | 0.00 | 0.00 | 0.00 | 73 | 1007.7 |
| 20260509162937 | 70 | 296 | 5.0 | 8.0 | 0.00 | 0.00 | 0.00 | 73 | 1007.8 |
| 20260509162437 | 70 | 292 | 6.0 | 7.0 | 0.00 | 0.00 | 0.00 | 74 | 1007.9 |
| 20260509161932 | 70 | 288 | 5.0 | 6.0 | 0.00 | 0.00 | 0.00 | 73 | 1008.0 |
| 20260509161429 | 70 | 280 | 5.0 | 7.0 | 0.00 | 0.00 | 0.00 | 73 | 1007.7 |
| 20260509160924 | 70 | 19 | 3.0 | 6.0 | 0.00 | 0.00 | 0.00 | 73 | 1007.9 |
| 20260509160420 | 69 | 297 | 4.0 | 6.0 | 0.00 | 0.00 | 0.00 | 73 | 1007.9 |
| 20260509155915 | 69 | 250 | 5.0 | 6.0 | 0.00 | 0.00 | 0.00 | 72 | 1007.7 |
| 20260509155412 | 69 | 61 | 2.0 | 7.0 | 0.00 | 0.00 | 0.00 | 72 | 1008.1 |
| 20260509154909 | 69 | 291 | 4.0 | 6.0 | 0.00 | 0.00 | 0.00 | 72 | 1008.0 |
| 20260509154405 | 69 | 288 | 7.0 | 10.0 | 0.00 | 0.00 | 0.00 | 73 | 1008.2 |
| 20260509153902 | 69 | 291 | 5.0 | 7.0 | 0.00 | 0.00 | 0.00 | 73 | 1008.3 |
| 20260509153359 | 69 | 286 | 6.0 | 8.0 | 0.00 | 0.00 | 0.00 | 73 | 1008.3 |
| 20260509152856 | 69 | 99 | 3.0 | 5.0 | 0.00 | 0.00 | 0.00 | 73 | 1008.2 |
| 20260509152352 | 69 | 298 | 3.0 | 6.0 | 0.00 | 0.00 | 0.00 | 73 | 1008.3 |
| 20260509151849 | 69 | 291 | 4.0 | 6.0 | 0.00 | 0.00 | 0.00 | 74 | 1008.4 |
| 20260509151345 | 69 | 299 | 3.0 | 6.0 | 0.00 | 0.00 | 0.00 | 76 | 1008.0 |
| 20260509150844 | 69 | 138 | 3.0 | 5.0 | 0.00 | 0.00 | 0.00 | 76 | 1007.9 |
| 20260509150341 | 68 | 302 | 3.0 | 5.0 | 0.00 | 0.00 | 0.00 | 76 | 1007.9 |
| 20260509145838 | 68 | 341 | 2.0 | 3.0 | 0.00 | 0.00 | 0.00 | 76 | 1008.2 |
| 20260509145332 | 68 | 292 | 5.0 | 7.0 | 0.00 | 0.00 | 0.00 | 76 | 1008.2 |
| 20260509144830 | 68 | 292 | 3.0 | 7.0 | 0.00 | 0.00 | 0.00 | 76 | 1008.2 |
| 20260509144326 | 67 | 288 | 5.0 | 6.0 | 0.00 | 0.00 | 0.00 | 77 | 1008.1 |
| 20260509143823 | 67 | 344 | 4.0 | 5.0 | 0.00 | 0.00 | 0.00 | 77 | 1008.3 |
| 20260509143321 | 67 | 60 | 1.0 | 2.0 | 0.00 | 0.00 | 0.00 | 77 | 1008.1 |
| 20260509142817 | 67 | 312 | 3.0 | 6.0 | 0.00 | 0.00 | 0.00 | 77 | 1008.2 |
| 20260509142313 | 67 | 292 | 3.0 | 6.0 | 0.00 | 0.00 | 0.00 | 77 | 1008.4 |
| 20260509141809 | 67 | 276 | 5.0 | 6.0 | 0.00 | 0.00 | 0.00 | 77 | 1008.5 |
| 20260509141306 | 67 | 300 | 5.0 | 7.0 | 0.00 | 0.00 | 0.00 | 76 | 1008.5 |
| 20260509140802 | 67 | 301 | 5.0 | 6.0 | 0.00 | 0.00 | 0.00 | 76 | 1008.8 |
| 20260509140259 | 67 | 335 | 3.0 | 7.0 | 0.00 | 0.00 | 0.00 | 78 | 1008.6 |
| 20260509135757 | 67 | 327 | 3.0 | 5.0 | 0.00 | 0.00 | 0.00 | 79 | 1008.9 |
| 20260509135254 | 67 | 319 | 3.0 | 6.0 | 0.00 | 0.00 | 0.00 | 78 | 1008.4 |
| 20260509134752 | 67 | 8 | 3.0 | 3.0 | 0.00 | 0.00 | 0.00 | 78 | 1008.5 |
| 20260509134249 | 67 | 43 | 0.0 | 1.0 | 0.00 | 0.00 | 0.00 | 78 | 1008.2 |
| 20260509133746 | 67 | 17 | 3.0 | 7.0 | 0.00 | 0.00 | 0.00 | 79 | 1008.4 |
| 20260509133243 | 67 | 287 | 5.0 | 7.0 | 0.00 | 0.00 | 0.00 | 78 | 1008.4 |
| 20260509132742 | 67 | 299 | 5.0 | 6.0 | 0.00 | 0.00 | 0.00 | 77 | 1008.3 |
| 20260509132240 | 66 | 50 | 1.0 | 2.0 | 0.00 | 0.00 | 0.00 | 78 | 1008.4 |
| 20260509131736 | 66 | 325 | 3.0 | 5.0 | 0.00 | 0.00 | 0.00 | 78 | 1008.5 |
| 20260509131233 | 66 | 263 | 4.0 | 7.0 | 0.00 | 0.00 | 0.00 | 78 | 1008.4 |
| 20260509130729 | 66 | 69 | 2.0 | 2.0 | 0.00 | 0.00 | 0.00 | 79 | 1008.4 |
| 20260509130225 | 66 | 332 | 2.0 | 3.0 | 0.00 | 0.00 | 0.00 | 79 | 1008.1 |
| 20260509125721 | 65 | 25 | 2.0 | 2.0 | 0.00 | 0.00 | 0.00 | 80 | 1008.3 |
| 20260509125219 | 65 | 6 | 1.0 | 2.0 | 0.00 | 0.00 | 0.00 | 81 | 1008.4 |
| 20260509124715 | 65 | 10 | 2.0 | 2.0 | 0.00 | 0.00 | 0.00 | 81 | 1008.7 |
| 20260509124212 | 64 | 333 | 3.0 | 3.0 | 0.00 | 0.00 | 0.00 | 82 | 1008.8 |
| 20260509123710 | 64 | 14 | 1.0 | 2.0 | 0.00 | 0.00 | 0.00 | 83 | 1008.4 |
| 20260509123207 | 64 | 304 | 5.0 | 6.0 | 0.00 | 0.00 | 0.00 | 83 | 1008.5 |
| 20260509122702 | 64 | 321 | 3.0 | 3.0 | 0.00 | 0.00 | 0.00 | 84 | 1008.2 |
| 20260509122159 | 64 | 338 | 2.0 | 3.0 | 0.00 | 0.00 | 0.00 | 85 | 1008.4 |
| 20260509121656 | 63 | 346 | 2.0 | 2.0 | 0.00 | 0.00 | 0.00 | 85 | 1008.3 |
| 20260509121154 | 63 | 42 | 1.0 | 1.0 | 0.00 | 0.00 | 0.00 | 86 | 1008.3 |
| 20260509120652 | 62 | 46 | 0.0 | 1.0 | 0.00 | 0.00 | 0.00 | 87 | 1008.4 |
| 20260509120149 | 62 | 28 | 0.0 | 1.0 | 0.00 | 0.00 | 0.00 | 87 | 1008.6 |
| 20260509115647 | 62 | 38 | 0.0 | 1.0 | 0.00 | 0.00 | 0.00 | 87 | 1008.5 |
| 20260509115144 | 62 | 39 | 0.0 | 1.0 | 0.00 | 0.00 | 0.00 | 87 | 1008.5 |
| 20260509114642 | 61 | 37 | 1.0 | 1.0 | 0.00 | 0.00 | 0.00 | 87 | 1008.6 |
| 20260509114141 | 61 | 34 | 0.0 | 1.0 | 0.00 | 0.00 | 0.00 | 87 | 1008.7 |
| 20260509113639 | 61 | 32 | 0.0 | 0.0 | 0.00 | 0.00 | 0.00 | 87 | 1008.8 |
| 20260509113136 | 61 | 14 | 0.0 | 1.0 | 0.00 | 0.00 | 0.00 | 87 | 1008.7 |
| 20260509112632 | 61 | 12 | 1.0 | 2.0 | 0.00 | 0.00 | 0.00 | 87 | 1008.9 |
| 20260509112129 | 61 | 22 | 0.0 | 0.0 | 0.00 | 0.00 | 0.00 | 87 | 1009.1 |
| 20260509111626 | 61 | 22 | 0.0 | 0.0 | 0.00 | 0.00 | 0.00 | 87 | 1008.9 |
| 20260509111123 | 61 | 32 | 0.0 | 0.0 | 0.00 | 0.00 | 0.00 | 87 | 1008.9 |
| 20260509110620 | 61 | 32 | 0.0 | 0.0 | 0.00 | 0.00 | 0.00 | 87 | 1008.9 |
| 20260509110117 | 61 | 20 | 1.0 | 1.0 | 0.00 | 0.00 | 0.00 | 87 | 1009.0 |
| 20260509105616 | 61 | 20 | 0.0 | 0.0 | 0.00 | 0.00 | 0.00 | 87 | 1009.0 |
| 20260509105113 | 61 | 20 | 0.0 | 1.0 | 0.00 | 0.00 | 0.00 | 87 | 1008.9 |
| 20260509104610 | 61 | 20 | 0.0 | 0.0 | 0.00 | 0.00 | 0.00 | 87 | 1008.9 |
| 20260509104108 | 61 | 20 | 0.0 | 0.0 | 0.00 | 0.00 | 0.00 | 87 | 1008.7 |
| 20260509103604 | 61 | 20 | 1.0 | 1.0 | 0.00 | 0.00 | 0.00 | 87 | 1008.8 |
| 20260509103102 | 61 | 8 | 1.0 | 2.0 | 0.00 | 0.00 | 0.00 | 87 | 1008.8 |
| 20260509102559 | 61 | 14 | 1.0 | 2.0 | 0.00 | 0.00 | 0.00 | 87 | 1008.8 |
| 20260509102056 | 60 | 1 | 1.0 | 2.0 | 0.00 | 0.00 | 0.00 | 87 | 1008.6 |
| 20260509101552 | 61 | 35 | 0.0 | 0.0 | 0.00 | 0.00 | 0.00 | 87 | 1008.1 |
| 20260509101049 | 60 | 35 | 0.0 | 2.0 | 0.00 | 0.00 | 0.00 | 87 | 1008.0 |
| 20260509100546 | 60 | 44 | 0.0 | 1.0 | 0.00 | 0.00 | 0.00 | 87 | 1007.9 |
| 20260509100044 | 60 | 43 | 0.0 | 0.0 | 0.00 | 0.00 | 0.00 | 87 | 1008.0 |
| 20260509095540 | 60 | 43 | 0.0 | 1.0 | 0.00 | 0.00 | 0.00 | 87 | 1007.6 |
| 20260509095038 | 60 | 43 | 0.0 | 0.0 | 0.00 | 0.00 | 0.00 | 86 | 1007.7 |
| 20260509094534 | 60 | 42 | 0.0 | 0.0 | 0.00 | 0.00 | 0.00 | 86 | 1007.9 |
| 20260509094031 | 60 | 43 | 1.0 | 1.0 | 0.00 | 0.00 | 0.00 | 86 | 1007.7 |
| 20260509093529 | 60 | 46 | 0.0 | 0.0 | 0.00 | 0.00 | 0.00 | 86 | 1007.4 |
| 20260509093027 | 60 | 46 | 0.0 | 0.0 | 0.00 | 0.00 | 0.00 | 86 | 1007.7 |
| 20260509092524 | 60 | 46 | 0.0 | 0.0 | 0.00 | 0.00 | 0.00 | 85 | 1007.4 |
| 20260509092023 | 60 | 46 | 0.0 | 1.0 | 0.00 | 0.00 | 0.00 | 85 | 1007.4 |
| 20260509091520 | 60 | 46 | 0.0 | 0.0 | 0.00 | 0.00 | 0.00 | 85 | 1007.4 |
| 20260509091016 | 60 | 46 | 0.0 | 0.0 | 0.00 | 0.00 | 0.00 | 85 | 1007.5 |
| 20260509090514 | 61 | 46 | 0.0 | 0.0 | 0.00 | 0.00 | 0.00 | 85 | 1007.4 |
| 20260509090012 | 61 | 46 | 0.0 | 0.0 | 0.00 | 0.00 | 0.00 | 85 | 1007.6 |
| 20260509085508 | 61 | 46 | 0.0 | 0.0 | 0.00 | 0.00 | 0.00 | 84 | 1007.6 |
| 20260509085004 | 61 | 46 | 0.0 | 1.0 | 0.00 | 0.00 | 0.00 | 84 | 1007.5 |
| 20260509084502 | 61 | 46 | 0.0 | 0.0 | 0.00 | 0.00 | 0.00 | 84 | 1007.7 |
| 20260509083959 | 61 | 46 | 0.0 | 0.0 | 0.00 | 0.00 | 0.00 | 84 | 1007.3 |
| 20260509083456 | 61 | 46 | 0.0 | 0.0 | 0.00 | 0.00 | 0.00 | 84 | 1007.4 |
| 20260509082952 | 61 | 46 | 0.0 | 1.0 | 0.00 | 0.00 | 0.00 | 84 | 1007.4 |
| 20260509082450 | 61 | 46 | 0.0 | 1.0 | 0.00 | 0.00 | 0.00 | 83 | 1007.4 |
| 20260509081947 | 61 | 46 | 0.0 | 1.0 | 0.00 | 0.00 | 0.00 | 83 | 1007.7 |
| 20260509081444 | 61 | 45 | 0.0 | 0.0 | 0.00 | 0.00 | 0.00 | 83 | 1007.7 |
| 20260509080941 | 61 | 49 | 0.0 | 0.0 | 0.00 | 0.00 | 0.00 | 83 | 1008.0 |
| 20260509080439 | 61 | 49 | 0.0 | 0.0 | 0.00 | 0.00 | 0.00 | 83 | 1007.7 |
| 20260509075937 | 61 | 49 | 0.0 | 0.0 | 0.00 | 0.00 | 0.00 | 83 | 1007.8 |
| 20260509075434 | 61 | 49 | 0.0 | 0.0 | 0.00 | 0.00 | 0.00 | 83 | 1007.8 |
| 20260509074932 | 61 | 49 | 0.0 | 0.0 | 0.00 | 0.00 | 0.00 | 83 | 1007.9 |
| 20260509074429 | 61 | 49 | 0.0 | 1.0 | 0.00 | 0.00 | 0.00 | 83 | 1007.9 |
| 20260509073925 | 61 | 49 | 0.0 | 1.0 | 0.00 | 0.00 | 0.00 | 83 | 1007.9 |
| 20260509073421 | 61 | 50 | 0.0 | 1.0 | 0.00 | 0.00 | 0.00 | 83 | 1008.1 |
| 20260509072918 | 61 | 50 | 0.0 | 0.0 | 0.00 | 0.00 | 0.00 | 83 | 1008.2 |
| 20260509072415 | 61 | 50 | 0.0 | 0.0 | 0.00 | 0.00 | 0.00 | 82 | 1008.1 |
| 20260509071911 | 61 | 50 | 0.0 | 0.0 | 0.00 | 0.00 | 0.00 | 82 | 1008.2 |
| 20260509071408 | 61 | 50 | 0.0 | 1.0 | 0.00 | 0.00 | 0.00 | 82 | 1008.1 |
| 20260509070906 | 61 | 50 | 0.0 | 1.0 | 0.00 | 0.00 | 0.00 | 82 | 1008.6 |
| 20260509070402 | 61 | 50 | 0.0 | 0.0 | 0.00 | 0.00 | 0.00 | 82 | 1008.4 |
| 20260509065858 | 61 | 50 | 0.0 | 0.0 | 0.00 | 0.00 | 0.00 | 82 | 1008.5 |